Time,TemperatureF,DewpointF,PressureIn,WindDirection,WindDirectionDegrees,WindSpeedMPH,WindSpeedGustMPH,Humidity,HourlyPrecipIn,Conditions,Clouds,dailyrainin,SoftwareType,DateUTC
2013-03-17 00:02:00,50.6,41.1,0.00,WNW,301,5.3,7.9,70,0.00,,,0.00,WUHU216CR1000,2013-03-17 07:02:00,
2013-03-17 00:07:00,50.6,41.1,0.00,WNW,301,5.3,7.9,70,0.00,,,0.00,WUHU216CR1000,2013-03-17 07:07:00,
2013-03-17 00:17:00,49.3,41.2,0.00,West,279,6.0,10.1,73,0.00,,,0.00,WUHU216CR1000,2013-03-17 07:17:00,
2013-03-17 00:22:00,49.3,41.2,0.00,West,279,6.0,10.1,73,0.00,,,0.00,WUHU216CR1000,2013-03-17 07:22:00,
2013-03-17 00:32:00,51.3,41.2,0.00,WNW,282,8.2,12.8,68,0.00,,,0.00,WUHU216CR1000,2013-03-17 07:32:00,
2013-03-17 00:37:00,51.3,41.2,0.00,WNW,282,8.2,12.8,68,0.00,,,0.00,WUHU216CR1000,2013-03-17 07:37:00,
2013-03-17 00:47:00,50.7,41.3,0.00,WNW,289,7.0,9.6,70,0.00,,,0.00,WUHU216CR1000,2013-03-17 07:47:00,
2013-03-17 00:52:00,50.7,41.3,0.00,WNW,289,7.0,9.6,70,0.00,,,0.00,WUHU216CR1000,2013-03-17 07:52:00,
2013-03-17 01:02:00,49.7,41.2,0.00,WNW,289,6.7,9.6,73,0.00,,,0.00,WUHU216CR1000,2013-03-17 08:02:00,
2013-03-17 01:07:00,49.7,41.2,0.00,WNW,289,6.7,9.6,73,0.00,,,0.00,WUHU216CR1000,2013-03-17 08:07:00,
2013-03-17 01:17:00,48.9,41.2,0.00,WNW,293,6.8,10.4,74,0.00,,,0.00,WUHU216CR1000,2013-03-17 08:17:00,
2013-03-17 01:22:00,48.9,41.2,0.00,WNW,293,6.8,10.4,74,0.00,,,0.00,WUHU216CR1000,2013-03-17 08:22:00,
2013-03-17 01:32:00,48.0,41.0,0.00,WNW,283,5.7,8.8,77,0.00,,,0.00,WUHU216CR1000,2013-03-17 08:32:00,
2013-03-17 01:37:00,48.0,41.0,0.00,WNW,283,5.7,8.8,77,0.00,,,0.00,WUHU216CR1000,2013-03-17 08:37:00,
2013-03-17 01:47:00,46.9,40.8,0.00,WNW,286,5.6,9.2,79,0.00,,,0.00,WUHU216CR1000,2013-03-17 08:47:00,
2013-03-17 01:52:00,46.9,40.8,0.00,WNW,286,5.6,9.2,79,0.00,,,0.00,WUHU216CR1000,2013-03-17 08:52:00,
2013-03-17 02:02:00,48.2,41.2,0.00,WNW,290,7.2,11.2,76,0.00,,,0.00,WUHU216CR1000,2013-03-17 09:02:00,
2013-03-17 02:07:00,48.2,41.2,0.00,WNW,290,7.2,11.2,76,0.00,,,0.00,WUHU216CR1000,2013-03-17 09:07:00,
2013-03-17 02:17:00,48.3,41.2,0.00,NW,304,5.7,10.2,76,0.00,,,0.00,WUHU216CR1000,2013-03-17 09:17:00,
2013-03-17 02:22:00,48.3,41.2,0.00,NW,304,5.7,10.2,76,0.00,,,0.00,WUHU216CR1000,2013-03-17 09:22:00,
2013-03-17 02:32:00,47.2,40.9,0.00,WNW,299,4.6,8.1,79,0.00,,,0.00,WUHU216CR1000,2013-03-17 09:32:00,
2013-03-17 02:37:00,47.2,40.9,0.00,WNW,299,4.6,8.1,79,0.00,,,0.00,WUHU216CR1000,2013-03-17 09:37:00,
2013-03-17 02:47:00,47.2,41.1,0.00,NW,306,5.2,10.5,79,0.00,,,0.00,WUHU216CR1000,2013-03-17 09:47:00,
2013-03-17 02:52:00,47.2,41.1,0.00,NW,306,5.2,10.5,79,0.00,,,0.00,WUHU216CR1000,2013-03-17 09:52:00,
2013-03-17 03:02:00,47.5,41.1,0.00,WNW,291,4.6,9.3,78,0.00,,,0.00,WUHU216CR1000,2013-03-17 10:02:00,
2013-03-17 03:07:00,47.5,41.1,0.00,WNW,291,4.6,9.3,78,0.00,,,0.00,WUHU216CR1000,2013-03-17 10:07:00,
2013-03-17 03:17:00,48.2,41.2,0.00,WNW,295,8.0,13.5,76,0.00,,,0.00,WUHU216CR1000,2013-03-17 10:17:00,
2013-03-17 03:22:00,48.2,41.2,0.00,WNW,295,8.0,13.5,76,0.00,,,0.00,WUHU216CR1000,2013-03-17 10:22:00,
2013-03-17 03:32:00,48.5,41.2,0.00,WNW,302,8.5,17.0,76,0.00,,,0.00,WUHU216CR1000,2013-03-17 10:32:00,
2013-03-17 03:37:00,48.5,41.2,0.00,WNW,302,8.5,17.0,76,0.00,,,0.00,WUHU216CR1000,2013-03-17 10:37:00,
2013-03-17 03:47:00,48.3,41.3,0.00,WNW,297,9.5,14.7,77,0.00,,,0.00,WUHU216CR1000,2013-03-17 10:47:00,
2013-03-17 03:52:00,48.3,41.3,0.00,WNW,297,9.5,14.7,77,0.00,,,0.00,WUHU216CR1000,2013-03-17 10:52:00,
2013-03-17 04:02:00,48.1,41.2,0.00,WNW,297,7.6,13.6,77,0.00,,,0.00,WUHU216CR1000,2013-03-17 11:02:00,
2013-03-17 04:07:00,48.1,41.2,0.00,WNW,297,7.6,13.6,77,0.00,,,0.00,WUHU216CR1000,2013-03-17 11:07:00,
2013-03-17 04:17:00,47.7,41.0,0.00,WNW,293,3.6,9.6,78,0.00,,,0.00,WUHU216CR1000,2013-03-17 11:17:00,
2013-03-17 04:22:00,47.7,41.0,0.00,WNW,293,3.6,9.6,78,0.00,,,0.00,WUHU216CR1000,2013-03-17 11:22:00,
2013-03-17 04:32:00,47.3,41.0,0.00,WNW,303,8.1,17.1,79,0.00,,,0.00,WUHU216CR1000,2013-03-17 11:32:00,
2013-03-17 04:37:00,47.3,41.0,0.00,WNW,303,8.1,17.1,79,0.00,,,0.00,WUHU216CR1000,2013-03-17 11:37:00,
2013-03-17 04:47:00,47.4,40.9,0.00,WNW,301,12.3,21.8,78,0.00,,,0.00,WUHU216CR1000,2013-03-17 11:47:00,
2013-03-17 04:52:00,47.4,40.9,0.00,WNW,301,12.3,21.8,78,0.00,,,0.00,WUHU216CR1000,2013-03-17 11:52:00,
2013-03-17 05:02:00,47.8,40.7,0.00,WNW,298,14.1,24.3,76,0.00,,,0.00,WUHU216CR1000,2013-03-17 12:02:00,
2013-03-17 05:07:00,47.8,40.7,0.00,WNW,298,14.1,24.3,76,0.00,,,0.00,WUHU216CR1000,2013-03-17 12:07:00,
2013-03-17 05:17:00,47.9,40.6,0.00,WNW,297,13.7,25.3,76,0.00,,,0.00,WUHU216CR1000,2013-03-17 12:17:00,
2013-03-17 05:22:00,47.9,40.6,0.00,WNW,297,13.7,25.3,76,0.00,,,0.00,WUHU216CR1000,2013-03-17 12:22:00,
2013-03-17 05:32:00,48.0,40.5,0.00,WNW,298,13.4,26.6,75,0.00,,,0.00,WUHU216CR1000,2013-03-17 12:32:00,
2013-03-17 05:37:00,48.0,40.5,0.00,WNW,298,13.4,26.6,75,0.00,,,0.00,WUHU216CR1000,2013-03-17 12:37:00,
2013-03-17 05:47:00,48.1,40.2,0.00,WNW,300,12.8,20.5,74,0.00,,,0.00,WUHU216CR1000,2013-03-17 12:47:00,
2013-03-17 05:52:00,48.1,40.2,0.00,WNW,300,12.8,20.5,74,0.00,,,0.00,WUHU216CR1000,2013-03-17 12:52:00,
2013-03-17 06:02:00,48.2,39.9,0.00,WNW,300,14.7,23.9,73,0.00,,,0.00,WUHU216CR1000,2013-03-17 13:02:00,
2013-03-17 06:07:00,48.2,39.9,0.00,WNW,300,14.7,23.9,73,0.00,,,0.00,WUHU216CR1000,2013-03-17 13:07:00,
2013-03-17 06:17:00,48.1,39.7,0.00,WNW,297,13.1,23.2,73,0.00,,,0.00,WUHU216CR1000,2013-03-17 13:17:00,
2013-03-17 06:22:00,48.1,39.7,0.00,WNW,297,13.1,23.2,73,0.00,,,0.00,WUHU216CR1000,2013-03-17 13:22:00,
2013-03-17 06:32:00,47.6,39.5,0.00,WNW,287,12.4,21.4,73,0.00,,,0.00,WUHU216CR1000,2013-03-17 13:32:00,
2013-03-17 06:37:00,47.6,39.5,0.00,WNW,287,12.4,21.4,73,0.00,,,0.00,WUHU216CR1000,2013-03-17 13:37:00,
2013-03-17 06:47:00,47.4,39.3,0.00,WNW,294,12.2,19.7,73,0.00,,,0.00,WUHU216CR1000,2013-03-17 13:47:00,
2013-03-17 06:52:00,47.4,39.3,0.00,WNW,294,12.2,19.7,73,0.00,,,0.00,WUHU216CR1000,2013-03-17 13:52:00,
2013-03-17 06:57:00,47.4,39.3,0.00,WNW,294,12.2,19.7,73,0.00,,,0.00,WUHU216CR1000,2013-03-17 13:57:00,
2013-03-17 07:02:00,47.4,39.1,0.00,WNW,293,12.4,20.4,73,0.00,,,0.00,WUHU216CR1000,2013-03-17 14:02:00,
2013-03-17 07:07:00,47.4,39.1,0.00,WNW,293,12.4,20.4,73,0.00,,,0.00,WUHU216CR1000,2013-03-17 14:07:00,
2013-03-17 07:17:00,47.4,38.9,0.00,WNW,300,11.3,18.4,72,0.00,,,0.00,WUHU216CR1000,2013-03-17 14:17:00,
2013-03-17 07:22:00,47.4,38.9,0.00,WNW,300,11.3,18.4,72,0.00,,,0.00,WUHU216CR1000,2013-03-17 14:22:00,
2013-03-17 07:32:00,47.0,38.8,0.00,NW,308,8.4,15.4,73,0.00,,,0.00,WUHU216CR1000,2013-03-17 14:32:00,
2013-03-17 07:37:00,47.0,38.8,0.00,NW,308,8.4,15.4,73,0.00,,,0.00,WUHU216CR1000,2013-03-17 14:37:00,
2013-03-17 07:47:00,46.3,38.9,0.00,WNW,296,9.4,15.3,76,0.00,,,0.00,WUHU216CR1000,2013-03-17 14:47:00,
2013-03-17 07:52:00,46.3,38.9,0.00,WNW,296,9.4,15.3,76,0.00,,,0.00,WUHU216CR1000,2013-03-17 14:52:00,
2013-03-17 08:02:00,47.1,39.0,0.00,WNW,286,11.7,17.5,73,0.00,,,0.00,WUHU216CR1000,2013-03-17 15:02:00,
2013-03-17 08:07:00,47.1,39.0,0.00,WNW,286,11.7,17.5,73,0.00,,,0.00,WUHU216CR1000,2013-03-17 15:07:00,
2013-03-17 08:17:00,48.1,39.0,0.00,West,280,11.5,18.4,71,0.00,,,0.00,WUHU216CR1000,2013-03-17 15:17:00,
2013-03-17 08:22:00,48.1,39.0,0.00,West,280,11.5,18.4,71,0.00,,,0.00,WUHU216CR1000,2013-03-17 15:22:00,
2013-03-17 08:32:00,48.9,39.0,0.00,WNW,291,12.3,21.7,68,0.00,,,0.00,WUHU216CR1000,2013-03-17 15:32:00,
2013-03-17 08:37:00,48.9,39.0,0.00,WNW,291,12.3,21.7,68,0.00,,,0.00,WUHU216CR1000,2013-03-17 15:37:00,
2013-03-17 08:47:00,49.6,39.0,0.00,WNW,296,14.6,24.1,67,0.00,,,0.00,WUHU216CR1000,2013-03-17 15:47:00,
2013-03-17 08:52:00,49.6,39.0,0.00,WNW,296,14.6,24.1,67,0.00,,,0.00,WUHU216CR1000,2013-03-17 15:52:00,
2013-03-17 09:02:00,50.6,39.1,0.00,WNW,296,14.4,23.3,65,0.00,,,0.00,WUHU216CR1000,2013-03-17 16:02:00,
2013-03-17 09:07:00,50.6,39.1,0.00,WNW,296,14.4,23.3,65,0.00,,,0.00,WUHU216CR1000,2013-03-17 16:07:00,
2013-03-17 09:17:00,51.5,39.1,0.00,WNW,295,13.6,22.3,63,0.00,,,0.00,WUHU216CR1000,2013-03-17 16:17:00,
2013-03-17 09:22:00,51.5,39.1,0.00,WNW,295,13.6,22.3,63,0.00,,,0.00,WUHU216CR1000,2013-03-17 16:22:00,
2013-03-17 09:32:00,52.0,39.1,0.00,WNW,296,12.6,23.7,61,0.00,,,0.00,WUHU216CR1000,2013-03-17 16:32:00,
2013-03-17 09:37:00,52.0,39.1,0.00,WNW,296,12.6,23.7,61,0.00,,,0.00,WUHU216CR1000,2013-03-17 16:37:00,
2013-03-17 09:47:00,53.5,39.3,0.00,NW,305,9.7,17.8,59,0.00,,,0.00,WUHU216CR1000,2013-03-17 16:47:00,
2013-03-17 09:52:00,53.5,39.3,0.00,NW,305,9.7,17.8,59,0.00,,,0.00,WUHU216CR1000,2013-03-17 16:52:00,
2013-03-17 10:02:00,54.5,39.4,0.00,NW,311,9.4,16.4,57,0.00,,,0.00,WUHU216CR1000,2013-03-17 17:02:00,
2013-03-17 10:07:00,54.5,39.4,0.00,NW,311,9.4,16.4,57,0.00,,,0.00,WUHU216CR1000,2013-03-17 17:07:00,
2013-03-17 10:17:00,55.8,39.4,0.00,NW,314,9.8,18.5,54,0.00,,,0.00,WUHU216CR1000,2013-03-17 17:17:00,
2013-03-17 10:22:00,55.8,39.4,0.00,NW,314,9.8,18.5,54,0.00,,,0.00,WUHU216CR1000,2013-03-17 17:22:00,
2013-03-17 10:32:00,56.3,38.7,0.00,NW,309,12.2,18.4,51,0.00,,,0.00,WUHU216CR1000,2013-03-17 17:32:00,
2013-03-17 10:37:00,56.3,38.7,0.00,NW,309,12.2,18.4,51,0.00,,,0.00,WUHU216CR1000,2013-03-17 17:37:00,
2013-03-17 10:47:00,57.8,39.0,0.00,NW,312,10.1,17.6,50,0.00,,,0.00,WUHU216CR1000,2013-03-17 17:47:00,
2013-03-17 10:52:00,57.8,39.0,0.00,NW,312,10.1,17.6,50,0.00,,,0.00,WUHU216CR1000,2013-03-17 17:52:00,
2013-03-17 11:02:00,58.4,38.7,0.00,NW,319,9.9,15.3,48,0.00,,,0.00,WUHU216CR1000,2013-03-17 18:02:00,
2013-03-17 11:07:00,58.4,38.7,0.00,NW,319,9.9,15.3,48,0.00,,,0.00,WUHU216CR1000,2013-03-17 18:07:00,
2013-03-17 11:17:00,59.1,38.2,0.00,NW,314,10.9,18.1,46,0.00,,,0.00,WUHU216CR1000,2013-03-17 18:17:00,
2013-03-17 11:22:00,59.1,38.2,0.00,NW,314,10.9,18.1,46,0.00,,,0.00,WUHU216CR1000,2013-03-17 18:22:00,
2013-03-17 11:32:00,60.1,37.7,0.00,NW,317,10.2,15.9,43,0.00,,,0.00,WUHU216CR1000,2013-03-17 18:32:00,
2013-03-17 11:37:00,60.1,37.7,0.00,NW,317,10.2,15.9,43,0.00,,,0.00,WUHU216CR1000,2013-03-17 18:37:00,
2013-03-17 11:47:00,61.1,37.4,0.00,NW,315,9.5,15.3,41,0.00,,,0.00,WUHU216CR1000,2013-03-17 18:47:00,
2013-03-17 11:52:00,61.1,37.4,0.00,NW,315,9.5,15.3,41,0.00,,,0.00,WUHU216CR1000,2013-03-17 18:52:00,
2013-03-17 12:02:00,62.2,36.9,0.00,NW,316,8.4,14.7,39,0.00,,,0.00,WUHU216CR1000,2013-03-17 19:02:00,
2013-03-17 12:07:00,62.2,36.9,0.00,NW,316,8.4,14.7,39,0.00,,,0.00,WUHU216CR1000,2013-03-17 19:07:00,
2013-03-17 12:17:00,63.3,36.8,0.00,NW,318,7.5,13.8,37,0.00,,,0.00,WUHU216CR1000,2013-03-17 19:17:00,
2013-03-17 12:22:00,63.3,36.8,0.00,NW,318,7.5,13.8,37,0.00,,,0.00,WUHU216CR1000,2013-03-17 19:22:00,
2013-03-17 12:32:00,64.0,36.1,0.00,NNW,328,7.6,12.9,35,0.00,,,0.00,WUHU216CR1000,2013-03-17 19:32:00,
2013-03-17 12:37:00,64.0,36.1,0.00,NNW,328,7.6,12.9,35,0.00,,,0.00,WUHU216CR1000,2013-03-17 19:37:00,
2013-03-17 12:47:00,65.0,34.4,0.00,WNW,303,7.5,12.8,32,0.00,,,0.00,WUHU216CR1000,2013-03-17 19:47:00,
2013-03-17 12:52:00,65.0,34.4,0.00,WNW,303,7.5,12.8,32,0.00,,,0.00,WUHU216CR1000,2013-03-17 19:52:00,
2013-03-17 13:02:00,66.3,34.7,0.00,NW,322,8.3,14.3,31,0.00,,,0.00,WUHU216CR1000,2013-03-17 20:02:00,
2013-03-17 13:07:00,66.3,34.7,0.00,NW,322,8.3,14.3,31,0.00,,,0.00,WUHU216CR1000,2013-03-17 20:07:00,
2013-03-17 13:17:00,67.4,34.6,0.00,NW,306,9.3,17.5,30,0.00,,,0.00,WUHU216CR1000,2013-03-17 20:17:00,
2013-03-17 13:22:00,67.4,34.6,0.00,NW,306,9.3,17.5,30,0.00,,,0.00,WUHU216CR1000,2013-03-17 20:22:00,
2013-03-17 13:32:00,67.5,33.7,0.00,NW,323,7.3,12.6,28,0.00,,,0.00,WUHU216CR1000,2013-03-17 20:32:00,
2013-03-17 13:37:00,67.5,33.7,0.00,NW,323,7.3,12.6,28,0.00,,,0.00,WUHU216CR1000,2013-03-17 20:37:00,
2013-03-17 13:47:00,68.2,34.0,0.00,NNW,335,5.0,10.1,28,0.00,,,0.00,WUHU216CR1000,2013-03-17 20:47:00,
2013-03-17 13:52:00,68.2,34.0,0.00,NNW,335,5.0,10.1,28,0.00,,,0.00,WUHU216CR1000,2013-03-17 20:52:00,
2013-03-17 14:02:00,69.0,35.0,0.00,NNW,333,2.9,7.6,29,0.00,,,0.00,WUHU216CR1000,2013-03-17 21:02:00,
2013-03-17 14:07:00,69.0,35.0,0.00,NNW,333,2.9,7.6,29,0.00,,,0.00,WUHU216CR1000,2013-03-17 21:07:00,
2013-03-17 14:17:00,69.2,33.8,0.00,North,11,2.5,5.7,27,0.00,,,0.00,WUHU216CR1000,2013-03-17 21:17:00,
2013-03-17 14:22:00,69.2,33.8,0.00,North,11,2.5,5.7,27,0.00,,,0.00,WUHU216CR1000,2013-03-17 21:22:00,
2013-03-17 14:32:00,69.9,34.2,0.00,NE,46,3.2,7.1,27,0.00,,,0.00,WUHU216CR1000,2013-03-17 21:32:00,
2013-03-17 14:37:00,69.9,34.2,0.00,NE,46,3.2,7.1,27,0.00,,,0.00,WUHU216CR1000,2013-03-17 21:37:00,
2013-03-17 14:47:00,70.1,33.8,0.00,NNW,345,3.6,7.5,26,0.00,,,0.00,WUHU216CR1000,2013-03-17 21:47:00,
2013-03-17 14:52:00,70.1,33.8,0.00,NNW,345,3.6,7.5,26,0.00,,,0.00,WUHU216CR1000,2013-03-17 21:52:00,
2013-03-17 15:02:00,70.2,34.0,0.00,WNW,302,2.2,5.8,26,0.00,,,0.00,WUHU216CR1000,2013-03-17 22:02:00,
2013-03-17 15:07:00,70.2,34.0,0.00,WNW,302,2.2,5.8,26,0.00,,,0.00,WUHU216CR1000,2013-03-17 22:07:00,
2013-03-17 15:17:00,71.2,35.0,0.00,NNW,329,3.5,11.3,26,0.00,,,0.00,WUHU216CR1000,2013-03-17 22:17:00,
2013-03-17 15:22:00,71.2,35.0,0.00,NNW,329,3.5,11.3,26,0.00,,,0.00,WUHU216CR1000,2013-03-17 22:22:00,
2013-03-17 15:32:00,71.3,34.4,0.00,NNW,341,2.8,6.9,26,0.00,,,0.00,WUHU216CR1000,2013-03-17 22:32:00,
2013-03-17 15:37:00,71.3,34.4,0.00,NNW,341,2.8,6.9,26,0.00,,,0.00,WUHU216CR1000,2013-03-17 22:37:00,
2013-03-17 15:47:00,71.8,34.6,0.00,North,1,3.3,7.9,26,0.00,,,0.00,WUHU216CR1000,2013-03-17 22:47:00,
2013-03-17 15:52:00,71.8,34.6,0.00,North,1,3.3,7.9,26,0.00,,,0.00,WUHU216CR1000,2013-03-17 22:52:00,
2013-03-17 16:02:00,72.2,34.0,0.00,WNW,282,2.1,5.6,25,0.00,,,0.00,WUHU216CR1000,2013-03-17 23:02:00,
2013-03-17 16:07:00,72.2,34.0,0.00,WNW,282,2.1,5.6,25,0.00,,,0.00,WUHU216CR1000,2013-03-17 23:07:00,
2013-03-17 16:17:00,72.4,35.1,0.00,SSW,213,2.5,6.4,26,0.00,,,0.00,WUHU216CR1000,2013-03-17 23:17:00,
2013-03-17 16:22:00,72.4,35.1,0.00,SSW,213,2.5,6.4,26,0.00,,,0.00,WUHU216CR1000,2013-03-17 23:22:00,
2013-03-17 16:32:00,72.6,36.4,0.00,WNW,285,3.6,9.6,27,0.00,,,0.00,WUHU216CR1000,2013-03-17 23:32:00,
2013-03-17 16:37:00,72.6,36.4,0.00,WNW,285,3.6,9.6,27,0.00,,,0.00,WUHU216CR1000,2013-03-17 23:37:00,
2013-03-17 16:47:00,72.0,40.6,0.00,SW,228,5.7,10.1,32,0.00,,,0.00,WUHU216CR1000,2013-03-17 23:47:00,
2013-03-17 16:52:00,72.0,40.6,0.00,SW,228,5.7,10.1,32,0.00,,,0.00,WUHU216CR1000,2013-03-17 23:52:00,
2013-03-17 17:02:00,70.0,43.5,0.00,South,184,6.7,11.8,38,0.00,,,0.00,WUHU216CR1000,2013-03-18 00:02:00,
2013-03-17 17:07:00,70.0,43.5,0.00,South,184,6.7,11.8,38,0.00,,,0.00,WUHU216CR1000,2013-03-18 00:07:00,
2013-03-17 17:17:00,69.4,42.8,0.00,South,186,7.5,14.9,38,0.00,,,0.00,WUHU216CR1000,2013-03-18 00:17:00,
2013-03-17 17:22:00,69.4,42.8,0.00,South,186,7.5,14.9,38,0.00,,,0.00,WUHU216CR1000,2013-03-18 00:22:00,
2013-03-17 17:32:00,68.6,42.4,0.00,South,172,7.3,13.2,39,0.00,,,0.00,WUHU216CR1000,2013-03-18 00:32:00,
2013-03-17 17:37:00,68.6,42.4,0.00,South,172,7.3,13.2,39,0.00,,,0.00,WUHU216CR1000,2013-03-18 00:37:00,
2013-03-17 17:47:00,68.1,41.9,0.00,South,171,6.4,11.2,39,0.00,,,0.00,WUHU216CR1000,2013-03-18 00:47:00,
2013-03-17 17:52:00,68.1,41.9,0.00,South,171,6.4,11.2,39,0.00,,,0.00,WUHU216CR1000,2013-03-18 00:52:00,
2013-03-17 18:02:00,67.1,41.5,0.00,South,176,6.3,10.3,39,0.00,,,0.00,WUHU216CR1000,2013-03-18 01:02:00,
2013-03-17 18:07:00,67.1,41.5,0.00,South,176,6.3,10.3,39,0.00,,,0.00,WUHU216CR1000,2013-03-18 01:07:00,
2013-03-17 18:17:00,66.8,41.5,0.00,South,181,3.2,6.7,40,0.00,,,0.00,WUHU216CR1000,2013-03-18 01:17:00,
2013-03-17 18:22:00,66.8,41.5,0.00,South,181,3.2,6.7,40,0.00,,,0.00,WUHU216CR1000,2013-03-18 01:22:00,
2013-03-17 18:32:00,66.4,42.3,0.00,ESE,119,0.7,2.4,42,0.00,,,0.00,WUHU216CR1000,2013-03-18 01:32:00,
2013-03-17 18:37:00,66.4,42.3,0.00,ESE,119,0.7,2.4,42,0.00,,,0.00,WUHU216CR1000,2013-03-18 01:37:00,
2013-03-17 18:47:00,65.5,42.2,0.00,WSW,256,1.1,3.9,43,0.00,,,0.00,WUHU216CR1000,2013-03-18 01:47:00,
2013-03-17 18:52:00,65.5,42.2,0.00,WSW,256,1.1,3.9,43,0.00,,,0.00,WUHU216CR1000,2013-03-18 01:52:00,
2013-03-17 19:02:00,63.2,44.3,0.00,WSW,249,3.6,6.9,50,0.00,,,0.00,WUHU216CR1000,2013-03-18 02:02:00,
2013-03-17 19:07:00,63.2,44.3,0.00,WSW,249,3.6,6.9,50,0.00,,,0.00,WUHU216CR1000,2013-03-18 02:07:00,
2013-03-17 19:17:00,61.4,45.1,0.00,WSW,238,5.2,7.9,55,0.00,,,0.00,WUHU216CR1000,2013-03-18 02:17:00,
2013-03-17 19:22:00,61.4,45.1,0.00,WSW,238,5.2,7.9,55,0.00,,,0.00,WUHU216CR1000,2013-03-18 02:22:00,
2013-03-17 19:32:00,59.4,45.5,0.00,WSW,242,4.7,7.5,60,0.00,,,0.00,WUHU216CR1000,2013-03-18 02:32:00,
2013-03-17 19:37:00,59.4,45.5,0.00,WSW,242,4.7,7.5,60,0.00,,,0.00,WUHU216CR1000,2013-03-18 02:37:00,
2013-03-17 19:47:00,58.8,43.8,0.00,WSW,246,4.9,8.1,57,0.00,,,0.00,WUHU216CR1000,2013-03-18 02:47:00,
2013-03-17 19:52:00,58.8,43.8,0.00,WSW,246,4.9,8.1,57,0.00,,,0.00,WUHU216CR1000,2013-03-18 02:52:00,
2013-03-17 20:02:00,58.4,41.0,0.00,WSW,252,5.5,10.1,52,0.00,,,0.00,WUHU216CR1000,2013-03-18 03:02:00,
2013-03-17 20:07:00,58.4,41.0,0.00,WSW,252,5.5,10.1,52,0.00,,,0.00,WUHU216CR1000,2013-03-18 03:07:00,
2013-03-17 20:17:00,57.4,40.6,0.00,West,272,4.3,8.0,53,0.00,,,0.00,WUHU216CR1000,2013-03-18 03:17:00,
2013-03-17 20:22:00,57.4,40.6,0.00,West,272,4.3,8.0,53,0.00,,,0.00,WUHU216CR1000,2013-03-18 03:22:00,
2013-03-17 20:32:00,56.2,40.2,0.00,West,280,2.8,5.7,55,0.00,,,0.00,WUHU216CR1000,2013-03-18 03:32:00,
2013-03-17 20:37:00,56.2,40.2,0.00,West,280,2.8,5.7,55,0.00,,,0.00,WUHU216CR1000,2013-03-18 03:37:00,
2013-03-17 20:47:00,56.1,39.3,0.00,WSW,254,2.9,4.9,53,0.00,,,0.00,WUHU216CR1000,2013-03-18 03:47:00,
2013-03-17 20:52:00,56.1,39.3,0.00,WSW,254,2.9,4.9,53,0.00,,,0.00,WUHU216CR1000,2013-03-18 03:52:00,
2013-03-17 21:02:00,55.4,39.1,0.00,WSW,248,3.4,8.2,54,0.00,,,0.00,WUHU216CR1000,2013-03-18 04:02:00,
2013-03-17 21:07:00,55.4,39.1,0.00,WSW,248,3.4,8.2,54,0.00,,,0.00,WUHU216CR1000,2013-03-18 04:07:00,
2013-03-17 21:17:00,54.9,38.7,0.00,West,276,2.3,3.6,54,0.00,,,0.00,WUHU216CR1000,2013-03-18 04:17:00,
2013-03-17 21:22:00,54.9,38.7,0.00,West,276,2.3,3.6,54,0.00,,,0.00,WUHU216CR1000,2013-03-18 04:22:00,
2013-03-17 21:32:00,54.3,38.6,0.00,NW,311,2.3,3.9,55,0.00,,,0.00,WUHU216CR1000,2013-03-18 04:32:00,
2013-03-17 21:37:00,54.3,38.6,0.00,NW,311,2.3,3.9,55,0.00,,,0.00,WUHU216CR1000,2013-03-18 04:37:00,
2013-03-17 21:47:00,54.0,37.9,0.00,NW,321,2.3,4.2,54,0.00,,,0.00,WUHU216CR1000,2013-03-18 04:47:00,
2013-03-17 21:52:00,54.0,37.9,0.00,NW,321,2.3,4.2,54,0.00,,,0.00,WUHU216CR1000,2013-03-18 04:52:00,
2013-03-17 22:02:00,53.1,37.5,0.00,NW,318,2.9,4.9,55,0.00,,,0.00,WUHU216CR1000,2013-03-18 05:02:00,
2013-03-17 22:07:00,53.1,37.5,0.00,NW,318,2.9,4.9,55,0.00,,,0.00,WUHU216CR1000,2013-03-18 05:07:00,
2013-03-17 22:17:00,52.5,37.3,0.00,NW,322,2.7,4.6,56,0.00,,,0.00,WUHU216CR1000,2013-03-18 05:17:00,
2013-03-17 22:22:00,52.5,37.3,0.00,NW,322,2.7,4.6,56,0.00,,,0.00,WUHU216CR1000,2013-03-18 05:22:00,
2013-03-17 22:32:00,52.1,37.3,0.00,NW,317,3.4,6.4,57,0.00,,,0.00,WUHU216CR1000,2013-03-18 05:32:00,
2013-03-17 22:37:00,52.1,37.3,0.00,NW,317,3.4,6.4,57,0.00,,,0.00,WUHU216CR1000,2013-03-18 05:37:00,
2013-03-17 22:47:00,51.2,37.4,0.00,West,276,2.5,4.2,59,0.00,,,0.00,WUHU216CR1000,2013-03-18 05:47:00,
2013-03-17 22:52:00,51.2,37.4,0.00,West,276,2.5,4.2,59,0.00,,,0.00,WUHU216CR1000,2013-03-18 05:52:00,
2013-03-17 23:02:00,50.8,37.4,0.00,West,271,2.5,4.3,60,0.00,,,0.00,WUHU216CR1000,2013-03-18 06:02:00,
2013-03-17 23:07:00,50.8,37.4,0.00,West,271,2.5,4.3,60,0.00,,,0.00,WUHU216CR1000,2013-03-18 06:07:00,
2013-03-17 23:17:00,50.5,37.4,0.00,WNW,295,2.2,3.2,61,0.00,,,0.00,WUHU216CR1000,2013-03-18 06:17:00,
2013-03-17 23:22:00,50.5,37.4,0.00,WNW,295,2.2,3.2,61,0.00,,,0.00,WUHU216CR1000,2013-03-18 06:22:00,
2013-03-17 23:32:00,49.6,37.4,0.00,West,281,0.6,2.0,63,0.00,,,0.00,WUHU216CR1000,2013-03-18 06:32:00,
2013-03-17 23:37:00,49.6,37.4,0.00,West,281,0.6,2.0,63,0.00,,,0.00,WUHU216CR1000,2013-03-18 06:37:00,
2013-03-17 23:47:00,48.7,37.4,0.00,SW,217,0.3,2.9,65,0.00,,,0.00,WUHU216CR1000,2013-03-18 06:47:00,
2013-03-17 23:52:00,48.7,37.4,0.00,SW,217,0.3,2.9,65,0.00,,,0.00,WUHU216CR1000,2013-03-18 06:52:00,